EW2997 Weather Reports


time (UTC)temp
C
wind
direction
speed
KPH
gust
KPH
rain 1hr
cm
rain 24hr
cm
rain mn
cm
humidity
%
barometer
mb
20260902185032 26 221 3.2 3.2 0.00 0.38 0.38 76 1021.9
20260902182030 25 264 3.2 3.2 0.00 0.38 0.38 80 1021.9
20260902175030 25 288 0.0 0.0 0.00 0.38 0.38 76 1022.2
20260902172027 21 82 3.2 3.2 0.00 0.38 0.38 94 1022.9
20260902165027 21 59 0.0 0.0 0.38 0.38 0.38 92 1023.7
20260902162022 21 78 0.0 0.0 0.36 0.36 0.36 93 1024.3
20260902155019 25 42 8.0 8.0 0.00 0.00 0.00 77 1024.0
20260902152018 27 240 3.2 3.2 0.00 0.00 0.00 75 1022.5
20260902145016 26 236 3.2 3.2 0.00 0.00 0.00 76 1022.2
20260902142012 27 207 0.0 0.0 0.00 0.00 0.00 76 1022.2
20260902135009 26 192 0.0 0.0 0.00 0.00 0.00 76 1022.2
20260902132008 26 241 0.0 0.0 0.00 0.00 0.00 77 1022.2
20260902125004 25 235 3.2 3.2 0.00 0.00 0.00 82 1022.5
20260902122004 24 26 0.0 0.0 0.00 0.00 0.00 86 1021.9
20260902115000 21 25 0.0 0.0 0.00 0.00 0.00 95 1021.9
20260902111954 20 25 0.0 0.0 0.00 0.00 0.00 97 1021.5
20260902104950 20 25 0.0 0.0 0.00 0.00 0.00 97 1021.5
20260902101947 20 25 0.0 0.0 0.00 0.00 0.00 96 1022.2
20260902094947 20 25 0.0 0.0 0.00 0.00 0.00 96 1021.9
20260902091945 21 25 0.0 0.0 0.00 0.00 0.00 96 1021.9
20260902084944 21 25 1.6 1.6 0.00 0.00 0.00 95 1021.9
20260902081940 20 25 0.0 0.0 0.00 0.00 0.00 96 1021.9
20260902074936 21 25 0.0 0.0 0.00 0.00 0.00 95 1021.5
20260902071933 21 25 0.0 0.0 0.00 0.00 0.00 95 1021.5
20260902064931 21 26 3.2 3.2 0.00 0.00 0.00 94 1021.2
20260902061928 22 26 0.0 0.0 0.00 0.00 0.00 93 1021.2
20260902054926 22 26 0.0 0.0 0.00 0.00 0.00 91 1021.5
20260902051924 23 26 1.6 1.6 0.00 0.00 0.00 88 1021.9
20260902044921 24 26 0.0 0.0 0.00 0.00 0.00 85 1021.9
20260902041920 25 140 4.8 6.4 0.00 0.00 0.00 77 1021.5
20260902034920 22 149 0.0 0.0 0.00 0.00 0.00 90 1021.2
20260902031920 23 149 1.6 1.6 0.00 0.00 0.00 88 1020.5
20260902024919 24 149 0.0 0.0 0.00 0.00 0.00 81 1020.2
20260902021919 24 229 1.6 1.6 0.00 0.00 0.00 84 1019.8
20260902014914 24 229 3.2 3.2 0.00 0.00 0.00 87 1020.2
20260902011909 25 229 3.2 3.2 0.00 0.00 0.00 80 1020.2
20260902004906 27 240 3.2 3.2 0.00 0.00 0.00 68 1019.5
20260902001903 28 236 3.2 3.2 0.00 0.00 0.00 68 1019.0
20260901234901 28 242 4.8 4.8 0.00 0.00 0.00 68 1018.7
20260901231902 29 282 0.0 0.0 0.00 0.00 0.00 63 1018.4
20260901224901 29 270 3.2 3.2 0.00 0.00 0.00 60 1018.4
20260901221859 30 271 3.2 3.2 0.00 0.00 0.00 59 1018.4
20260901214857 31 277 3.2 3.2 0.00 0.00 0.00 53 1018.4
20260901211854 32 276 3.2 3.2 0.00 0.00 0.00 54 1018.4
20260901204849 32 342 3.2 3.2 0.00 0.00 0.00 47 1018.4
20260901201844 32 292 4.8 6.4 0.00 0.00 0.00 54 1018.4
20260901194844 32 311 4.8 6.4 0.00 0.00 0.00 50 1018.7
20260901191843 32 268 3.2 3.2 0.00 0.00 0.00 49 1018.7